NOAA 16 DEB, 42405

Orbit data source: Space-Track

NOAA 16 DEB, 42405 is space debris in SSO originally from a launch on Thu, 21 Sep 2000 UTC launched from the Air Force Western Test Range (AFWTR). Debris objects in space refer to the collection of defunct objects orbiting the Earth. Examples of debris include non-operational satellites, rocket bodies, and fragments generated from explosions, collisions, or faulty payload assembly.

Loading next visibility...
Identifier
42405, 2000-055SZ
Orbit
SSO
Country
Flag of USUS
Related business
Manufacturer
Unknown
Mission
Spacecraft
Bus & Motor
Unknown
Mass
Unknown
Launch date (UTC)
2000-09-21 (25 years ago)
Launch vehicle
Unknown
Launch site
Air Force Western Test Range (AFWTR)
Object type
Payload
Rocket body
Debris
Shape & HBR
Unknown shape, 0.1 m
Radar Cross Section
Small (<0.1 m²)

Expand to show TLE details & history
Last TLE update: 16 hours ago

TLE from 16 hours ago
0 NOAA 16 DEB
1 42405U 00055SZ  26036.63041942  .00015008  00000-0  36884-2 0  9996
2 42405  99.0326 277.7282 0023558 150.8160 209.4355 14.52232818514728
Epoch: 2026-02-05T15:07Z
TLE epoch observation values (Epoch: 2026-02-05T15:07:48.237Z)
Latitude
-0.00005°
Longitude
-85.00267°
Altitude
735.885 km
Speed
7.479 km/s
True Right ascension
18h 30m 54s
True Declination
0° 00' 00"
Sunlit
Object was in daylight at epoch
Visualization orbit readout
Latitude
Unknown
Longitude
Unknown
Altitude
Unknown
Speed
Unknown
Apparent Right ascension
Unknown
Apparent Declination
Unknown
Sunlit
N/A
Visualization observer readout
Local Sidereal Time
09:36:52
Azimuth
Unknown
Elevation
Unknown
Doppler factor
Unknown
Orbital elements
Apogee altitude
732.208 km
Perigee altitude
698.786 km
Semi-major axis
7,093.634 km
Eccentricity
0.00236
Inclination
99.0326°
RAAN
277.7282°
Arg. of periapsis
150.816°
True anomaly
209.30317°
Mean anomaly
209.4355°
Eccentric anomaly
209.3693°
Mean motion
3.63279 °/min
Orbital period
99.1 mins
BSTAR
0.0036884
Loading maneuver chart data...
Computing Atmospheric mass density...
Loading historical data...
Loading historical data...
Loading historical data...
Loading historical data...
Loading historical data...
Loading historical data...
Loading historical data...

Documentation

Showing up to 5 results
|